Content
SEND FEEDBACK

Daily
Averages
Monthly
Summary
United States of America

POTTS JUNCTION, GUAM


Home > North America > United States > Guam
Elevation: 360 feet     Latitude: 13 33N     Longitude: 144 50E

WEATHER
 
SELECT A DAY
Number of Records: 206,838;   Date Range: 1/1/95 - 4/16/14
 
SHARE

PRINT THIS DATA

[ ← Previous Day ]
WEATHER ALMANAC - OCTOBER 4, 2013
[ Next Day → ]
[ °C ]   °F
We're sorry. There is no daily almanac available for Potts Junction, Guam on October 4, 2013.
WEATHER BY HOUR - OCTOBER 4, 2013
[ °C ]   °F
Local TimeTemperatureDewpointHumidityBarometerVisibilityWind DirectionWind SpeedGust SpeedPrecipitationEventsConditions
12:39 AM78.8 °F75.2 °F89 %29.72 in10.0 miNorth (360°)3.5 mphMostly Cloudy
12:54 AM79.0 °F75.9 °F90 %29.69 in10.0 miCalmMostly Cloudy
1:54 AM79.0 °F75.9 °F90 %29.67 in10.0 miCalmClear
2:54 AM79.0 °F75.0 °F88 %29.67 in10.0 miNW (320°)4.6 mphClear
3:54 AM80.1 °F77.0 °F90 %29.65 in10.0 miWNW (290°)8.1 mphScattered Clouds
4:54 AM81.0 °F77.0 °F88 %29.64 in10.0 miWNW (290°)8.1 mphScattered Clouds
5:54 AM80.1 °F75.9 °F87 %29.65 in10.0 miNW (320°)8.1 mphClear
6:54 AM81.0 °F77.0 °F88 %29.66 in10.0 miWNW (300°)6.9 mphClear
7:54 AM82.9 °F75.9 °F79 %29.69 in10.0 miWNW (300°)9.2 mphPartly Cloudy
8:54 AM82.9 °F77.0 °F82 %29.68 in10.0 miWNW (290°)6.9 mphClear
9:54 AM84.9 °F77.0 °F77 %29.68 in10.0 miWest (270°)9.2 mphPartly Cloudy
10:54 AM86.0 °F78.1 °F77 %29.67 in10.0 miWest (280°)12.7 mphPartly Cloudy
11:54 AM84.0 °F78.1 °F82 %29.65 in10.0 miWest (270°)9.2 mph0.00 inRainLight Rain
12:54 PM84.0 °F78.1 °F82 %29.62 in10.0 miWest (280°)11.5 mph0.00 inPartly Cloudy
2:54 PM86.0 °F77.0 °F74 %29.59 in10.0 miWest (280°)15.0 mphPartly Cloudy
3:54 PM84.9 °F77.0 °F77 %29.59 in10.0 miWest (280°)11.5 mphScattered Clouds
4:54 PM84.0 °F75.9 °F76 %29.61 in10.0 miWSW (250°)10.4 mphScattered Clouds
5:54 PM82.0 °F77.0 °F85 %29.62 in10.0 miWSW (250°)8.1 mphScattered Clouds
6:54 PM82.0 °F77.0 °F85 %29.64 in10.0 miSSW (210°)4.6 mphScattered Clouds
7:54 PM81.0 °F77.0 °F88 %29.65 in10.0 miSW (230°)3.5 mphPartly Cloudy
8:54 PM81.0 °F77.0 °F88 %29.65 in10.0 miSSW (200°)3.5 mphPartly Cloudy
9:54 PM81.0 °F77.0 °F88 %29.66 in10.0 miSSW (200°)3.5 mphPartly Cloudy
10:54 PM80.1 °F77.0 °F90 %29.67 in10.0 miSSW (200°)4.6 mphPartly Cloudy
11:54 PM80.1 °F77.0 °F90 %29.67 in7.0 miSouth (190°)3.5 mph0.00 inRainLight Rain
Hourly data recorded from PGUM, located 4.39 miles away from Potts Junction, Guam







STORIES FROM OUR PARTNERS